Location: M�nchen
(48.1404°N, 11.6043°E)
Time: 17:52:38
(UTC+01:00)

Amateur Radio Satellites - All Passes

Search period start: 19 January 2018 17:22
Search period end: 20 January 2018 17:22
Location: M�nchen, 48.1404°N, 11.6043°E

Satellite Date Start Highest point End Downlink Frequencies (MHz)
Time Altitude Azimuth
STARS 19 Jan 17:25:02 17:28:12 19° 92° (E) 17:31:20 437.465
XW-2F 19 Jan 17:26:01 17:29:50 88° 77° (ENE) 17:33:40 145.980 - 146.000
KAITUO 1B 19 Jan 17:27:38 17:31:23 71° 75° (ENE) 17:35:08 145.475/437.950
BEESAT 3 19 Jan 17:27:38 17:30:59 25° 38° (NE) 17:34:17 437.485
XW-2D 19 Jan 17:34:07 17:37:56 67° 259° (W) 17:41:46 145.860 - 145.880
RS-15 19 Jan 17:35:09 17:46:58 79° 237° (WSW) 17:58:07 29.354- 29.394
NUDT-PHONESAT 19 Jan 17:42:03 17:45:48 84° 257° (WSW) 17:49:34 437.300
ITUPSAT 1 19 Jan 17:47:29 17:50:05 15° 304° (NW) 17:52:40 437.325
XW-2B 19 Jan 17:51:50 17:55:31 44° 261° (W) 17:59:13 145.730 - 145.750
AAUSAT CUBESAT 2 19 Jan 17:54:25 17:57:05 17° 62° (ENE) 17:59:45 437.432
SEEDS 19 Jan 18:05:33 18:09:34 45° 71° (ENE) 18:13:36 437.485
CUBEBUG 2 19 Jan 18:07:28 18:11:43 50° 71° (ENE) 18:16:07 437.445
BEESAT 2 19 Jan 18:11:04 18:14:18 22° 36° (NE) 18:17:31 435.950
CUTE 1.7 + AOD 2 19 Jan 18:14:13 18:18:30 89° 72° (ENE) 18:22:47 437.475
CUTE-I 19 Jan 18:16:06 18:21:08 43° 262° (W) 18:26:11 437.470
UWE-3 19 Jan 18:16:50 18:20:56 37° 68° (ENE) 18:25:09 435.000/436.395/437.385
LilacSat-2 19 Jan 18:18:20 18:21:22 22° 267° (W) 18:24:24 437.200
XW-2C 19 Jan 18:23:00 18:25:56 21° 267° (W) 18:28:54 145.795 - 145.815
XW-2A 19 Jan 18:31:18 18:34:14 27° 69° (ENE) 18:37:11 145.665 - 145.685
HO-68 19 Jan 18:33:55 18:41:02 66° 256° (WSW) 18:48:11 435.675
PCSat 19 Jan 18:34:50 18:40:12 54° 50° (NE) 18:45:30 145.827
AO-85 19 Jan 18:36:59 18:39:56 16° 25° (NNE) 18:43:00 145.980
KKS-1 19 Jan 18:39:39 18:43:44 36° 293° (WNW) 18:47:49 437.445
ZACube-1 19 Jan 18:44:33 18:48:41 38° 68° (ENE) 18:52:55 437.345
NO-84 19 Jan 18:51:07 18:54:04 74° 328° (NNW) 18:56:55 435.350 FM
AO-73 19 Jan 18:52:24 18:56:34 41° 69° (ENE) 19:00:50 145.935
STARS 19 Jan 19:00:31 19:04:49 51° 290° (WNW) 19:09:06 437.465
BEESAT 3 19 Jan 19:04:54 19:08:41 47° 239° (WSW) 19:12:25 437.485
KAITUO 1B 19 Jan 19:05:01 19:05:48 11° 272° (W) 19:06:35 145.475/437.950
STRAND 1 19 Jan 19:09:05 19:13:41 32° 96° (E) 19:18:17 437.568
Oscar 11 19 Jan 19:27:35 19:31:51 58° 73° (ENE) 19:36:09 .
AAUSAT CUBESAT 2 19 Jan 19:28:04 19:32:08 56° 260° (W) 19:36:13 437.432
FO-29 19 Jan 19:33:16 19:37:24 23° 92° (E) 19:41:29 435.910
SEEDS 19 Jan 19:42:21 19:45:28 20° 268° (W) 19:48:35 437.485
CUBEBUG 2 19 Jan 19:45:28 19:48:38 19° 270° (W) 19:51:55 437.445
BEESAT 2 19 Jan 19:48:23 19:52:22 61° 236° (SW) 19:56:17 435.950
RS-15 19 Jan 19:49:14 19:57:21 23° 261° (W) 20:05:14 29.354- 29.394
Max Valier Satellite 19 Jan 19:49:46 19:51:36 13° 61° (ENE) 19:53:26 145.860
UWE-3 19 Jan 19:53:43 19:57:28 26° 267° (W) 20:01:20 435.000/436.395/437.385
CUTE 1.7 + AOD 2 19 Jan 19:54:19 19:54:57 10° 274° (W) 19:55:35 437.475
XW-2A 19 Jan 20:04:14 20:06:56 21° 266° (W) 20:09:38 145.665 - 145.685
EO-88 19 Jan 20:12:16 20:14:26 15° 63° (ENE) 20:16:37 145.990 - 145.960
AO-85 19 Jan 20:16:39 20:21:23 52° 46° (NE) 20:26:25 145.980
PCSat 19 Jan 20:18:43 20:23:18 29° 250° (WSW) 20:27:53 145.827
DELFI C3 19 Jan 20:21:12 20:24:52 40° 70° (ENE) 20:28:34 145.870
ZACube-1 19 Jan 20:21:20 20:25:03 26° 267° (W) 20:28:52 437.345
HO-68 19 Jan 20:27:11 20:30:09 13° 277° (W) 20:33:07 435.675
NO-84 19 Jan 20:29:13 20:31:34 22° 350° (N) 20:33:54 435.350 FM
AO-73 19 Jan 20:29:17 20:32:56 24° 268° (W) 20:36:40 145.935
UNISAT 6 19 Jan 20:44:03 20:46:25 14° 87° (E) 20:48:47 437.425
STRAND 1 19 Jan 20:48:11 20:52:55 39° 294° (WNW) 20:57:40 437.568
Oscar 11 19 Jan 21:05:35 21:08:21 16° 270° (W) 21:11:09 .
FO-29 19 Jan 21:17:49 21:22:55 50° 291° (WNW) 21:27:55 435.910
Max Valier Satellite 19 Jan 21:21:14 21:24:55 62° 258° (WSW) 21:28:40 145.860
ESTCUBE 1 19 Jan 21:27:48 21:30:45 17° 60° (ENE) 21:33:42 437.505/2401.250
LO-87 19 Jan 21:36:25 21:38:56 18° 64° (ENE) 21:41:27 145.935 - 145.965
nSIGHT-1 19 Jan 21:40:37 21:43:36 38° 147° (SSE) 21:46:35 .
EO-88 19 Jan 21:44:08 21:47:42 49° 260° (W) 21:51:17 145.990 - 145.960
ISS 19 Jan 21:47:11 21:50:08 32° 145° (SE) 21:53:07 437.550
DELFI C3 19 Jan 21:56:58 21:59:47 19° 268° (W) 22:02:36 145.870
AO-85 19 Jan 21:57:22 22:01:39 30° 244° (WSW) 22:06:10 145.980
YUBILEINY 19 Jan 21:58:12 22:04:59 26° 78° (ENE) 22:11:44 435.215
TIGRISAT 19 Jan 22:04:06 22:08:49 70° 102° (ESE) 22:13:29 435.000
NO-84 19 Jan 22:07:02 22:09:22 23° 11° (NNE) 22:11:45 435.350 FM
UNISAT 6 19 Jan 22:18:58 22:23:41 80° 286° (WNW) 22:28:23 437.425
AIST 2D 19 Jan 22:47:11 22:49:56 21° 94° (E) 22:52:40 435.315
PRISM 19 Jan 23:00:35 23:04:38 65° 102° (ESE) 23:08:41 437.425
POLYITAN 1 19 Jan 23:02:30 23:04:06 12° 87° (E) 23:05:42 437.675
ESTCUBE 1 19 Jan 23:02:34 23:07:04 66° 258° (WSW) 23:11:36 437.505/2401.250
LO-87 19 Jan 23:08:46 23:12:04 36° 262° (W) 23:15:26 145.935 - 145.965
VELOX 1 19 Jan 23:10:01 23:13:34 25° 64° (ENE) 23:17:09 145.980
nSIGHT-1 19 Jan 23:16:35 23:19:43 55° 346° (NNW) 23:22:51 .
SPROUT 19 Jan 23:18:29 23:22:33 47° 71° (ENE) 23:26:40 437.525
NANOSAT C BR1 19 Jan 23:18:51 23:21:25 15° 90° (E) 23:23:59 145.865
ISS 19 Jan 23:23:15 23:26:30 62° 344° (NNW) 23:29:45 437.550
QB50P2 19 Jan 23:30:29 23:34:04 25° 94° (E) 23:37:37 145.880/145.840
DX 1 19 Jan 23:34:05 23:35:02 11° 55° (NE) 23:35:59 434.975-435.025
TIGRISAT 19 Jan 23:41:53 23:44:58 18° 300° (WNW) 23:48:05 435.000
NO-84 19 Jan 23:43:59 23:46:50 83° 32° (NNE) 23:49:46 435.350 FM
YUBILEINY 19 Jan 23:51:57 00:00:49 80° 280° (W) 00:09:40 435.215
UNISAT 6 19 Jan 23:57:38 23:59:38 13° 304° (NW) 00:01:38 437.425
EO-79 20 Jan 00:01:36 00:05:45 46° 99° (E) 00:09:52 145.935-145.965
DUCHIFAT 1 20 Jan 00:02:28 00:06:25 36° 97° (E) 00:10:21 145.980
AIST 2D 20 Jan 00:20:06 00:23:06 27° 291° (WNW) 00:26:05 435.315
POLYITAN 1 20 Jan 00:36:06 00:40:26 80° 285° (WNW) 00:44:43 437.675
PRISM 20 Jan 00:37:07 00:39:25 15° 300° (WNW) 00:41:44 437.425
Oscar 19 20 Jan 00:44:20 00:47:51 18° 90° (E) 00:51:20 437.125/150
VELOX 1 20 Jan 00:45:42 00:49:50 40° 262° (W) 00:53:59 145.980
MOZHAYETS 4 20 Jan 00:51:17 00:53:22 13° 56° (NE) 00:55:27
nSIGHT-1 20 Jan 00:53:08 00:56:11 43° 5° (N) 00:59:16 .
NANOSAT C BR1 20 Jan 00:53:17 00:57:30 60° 288° (WNW) 01:01:42 145.865
SPROUT 20 Jan 00:55:38 00:58:42 19° 269° (W) 01:01:46 437.525
UKube-1 20 Jan 00:57:49 01:01:49 39° 68° (ENE) 01:05:50 .
ISS 20 Jan 01:00:08 01:03:17 43° 3° (N) 01:06:26 437.550
QB50P2 20 Jan 01:05:58 01:09:55 36° 292° (WNW) 01:13:51 145.880/145.840
DX 1 20 Jan 01:06:07 01:10:27 76° 73° (ENE) 01:14:47 434.975-435.025
O/OREOS (USA 219) 20 Jan 01:08:01 01:12:31 76° 114° (ESE) 01:17:02 437.305
BUGSAT 1 20 Jan 01:09:39 01:13:44 44° 99° (E) 01:17:49 437.445
50 SAT 20 Jan 01:14:50 01:17:55 88° 92° (E) 01:21:03 437.505
NO-84 20 Jan 01:22:15 01:23:36 12° 228° (SW) 01:24:58 435.350 FM
EO-79 20 Jan 01:37:58 01:41:13 21° 297° (WNW) 01:44:27 145.935-145.965
DUCHIFAT 1 20 Jan 01:38:23 01:41:56 26° 295° (WNW) 01:45:27 145.980
ITUPSAT 1 20 Jan 01:41:44 01:45:28 23° 61° (ENE) 01:49:14 437.325
AO-91 20 Jan 01:50:31 01:54:50 80° 103° (ESE) 01:59:37 145.960
YUBILEINY 20 Jan 01:52:50 01:59:12 21° 305° (NW) 02:05:36 435.215
Gurwin Techsat 1B 20 Jan 01:56:46 02:02:02 57° 101° (E) 02:07:15 435.225
POLYITAN 1 20 Jan 02:14:17 02:15:27 11° 304° (NW) 02:16:37 437.675
BEESAT 20 Jan 02:21:20 02:25:55 50° 69° (ENE) 02:30:33 436.000
Oscar 19 20 Jan 02:22:31 02:27:41 69° 288° (WNW) 02:32:48 437.125/150
MOZHAYETS 4 20 Jan 02:25:08 02:29:46 84° 75° (ENE) 02:34:27
CUBESAT XI-V 20 Jan 02:25:21 02:29:13 26° 64° (ENE) 02:33:04 437.345
nSIGHT-1 20 Jan 02:29:21 02:32:32 77° 207° (SSW) 02:35:43 .
UKube-1 20 Jan 02:34:29 02:37:57 23° 266° (W) 02:41:27 .
ISS 20 Jan 02:36:41 02:39:59 89° 184° (S) 02:43:16 437.550
AO-7 20 Jan 02:43:56 02:50:54 28° 93° (E) 02:57:48 .
DX 1 20 Jan 02:45:15 02:47:09 13° 271° (W) 02:49:03 434.975-435.025
BUGSAT 1 20 Jan 02:45:34 02:48:49 22° 297° (WNW) 02:52:05 437.445
O/OREOS (USA 219) 20 Jan 02:49:27 02:52:29 17° 314° (NW) 02:55:31 437.305
ITUPSAT 1 20 Jan 03:18:20 03:22:59 52° 260° (W) 03:27:41 437.325
ITAMSAT 1 20 Jan 03:25:52 03:30:23 29° 95° (E) 03:34:53 435.822/435.867
AO-91 20 Jan 03:28:34 03:30:52 14° 299° (WNW) 03:33:16 145.960
Gurwin Techsat 1B 20 Jan 03:37:23 03:41:37 25° 300° (WNW) 03:45:51 435.225
BEESAT 20 Jan 04:00:16 04:03:57 22° 267° (W) 04:07:41 436.000
CUBESAT XI-V 20 Jan 04:01:55 04:06:22 43° 262° (W) 04:10:51 437.345
DOVE 4 20 Jan 04:03:23 04:06:17 17° 91° (E) 04:09:15 437.250
Oscar 19 20 Jan 04:03:57 04:06:04 13° 308° (NW) 04:08:13 437.125/150
KKS-1 20 Jan 04:04:27 04:08:33 39° 68° (ENE) 04:12:40 437.445
MOZHAYETS 4 20 Jan 04:05:34 04:07:33 12° 273° (W) 04:09:32
nSIGHT-1 20 Jan 04:06:22 04:08:16 15° 223° (SW) 04:10:10 .
ISS 20 Jan 04:13:44 04:16:06 19° 221° (SW) 04:18:27 437.550
STARS 20 Jan 04:24:43 04:28:21 27° 64° (ENE) 04:32:01 437.465
AO-7 20 Jan 04:36:04 04:44:27 76° 293° (WNW) 04:52:45 .
STRAND 1 20 Jan 04:53:21 04:55:06 12° 52° (NE) 04:56:50 437.568
M-CUBED/EXP-1 PRIME 20 Jan 04:57:27 05:00:33 31° 103° (ESE) 05:03:30 437.505
ITAMSAT 1 20 Jan 05:05:05 05:10:00 44° 293° (WNW) 05:14:54 435.822/435.867
XW-2B 20 Jan 05:21:35 05:23:44 15° 90° (E) 05:25:54 145.730 - 145.750
SO-50 20 Jan 05:29:09 05:32:59 29° 117° (ESE) 05:36:55 436.795
DOVE 4 20 Jan 05:40:05 05:44:16 54° 288° (WNW) 05:48:38 437.250
KKS-1 20 Jan 05:41:34 05:45:13 25° 266° (W) 05:48:53 437.445
LilacSat-2 20 Jan 05:47:02 05:50:25 30° 96° (E) 05:53:46 437.200
FO-29 20 Jan 05:49:42 05:54:21 21° 58° (ENE) 05:58:39 435.910
XW-2C 20 Jan 05:50:53 05:54:16 31° 96° (E) 05:57:37 145.795 - 145.815
CUTE 1.7 + AOD 2 20 Jan 05:57:15 05:58:56 12° 87° (E) 06:00:37 437.475
HO-68 20 Jan 05:58:30 06:03:41 21° 89° (E) 06:08:50 435.675
STARS 20 Jan 06:00:32 06:04:33 36° 262° (W) 06:08:37 437.465
RS-15 20 Jan 06:01:57 06:03:42 10° 89° (E) 06:05:26 29.354- 29.394
XW-2F 20 Jan 06:28:15 06:32:01 78° 103° (ESE) 06:35:44 145.980 - 146.000
STRAND 1 20 Jan 06:28:17 06:33:19 65° 71° (ENE) 06:38:24 437.568
KAITUO 1B 20 Jan 06:28:44 06:32:25 59° 100° (E) 06:36:03 145.475/437.950
CUTE-I 20 Jan 06:28:53 06:34:09 58° 101° (E) 06:39:24 437.470
AO-7 20 Jan 06:29:51 06:35:58 23° 316° (NW) 06:42:05 .
M-CUBED/EXP-1 PRIME 20 Jan 06:32:14 06:34:47 20° 302° (WNW) 06:37:16 437.505
XW-2D 20 Jan 06:36:52 06:40:39 75° 285° (WNW) 06:44:23 145.860 - 145.880
NUDT-PHONESAT 20 Jan 06:42:00 06:45:43 81° 103° (ESE) 06:49:22 437.300
FALCONSAT 3 20 Jan 06:46:14 06:47:30 11° 180° (S) 06:48:47 435.103
XW-2B 20 Jan 06:54:32 06:58:12 49° 288° (WNW) 07:01:49 145.730 - 145.750
AAUSAT CUBESAT 2 20 Jan 07:07:07 07:09:52 17° 91° (E) 07:12:37 437.432
SO-50 20 Jan 07:08:59 07:13:17 45° 316° (NW) 07:17:42 436.795
SEEDS 20 Jan 07:20:53 07:24:59 53° 100° (E) 07:29:03 437.485
LilacSat-2 20 Jan 07:21:29 07:24:34 24° 294° (WNW) 07:27:38 437.200
XW-2A 20 Jan 07:21:52 07:24:10 17° 92° (E) 07:26:27 145.665 - 145.685
XW-2C 20 Jan 07:25:17 07:28:19 23° 294° (WNW) 07:31:20 145.795 - 145.815
CUBEBUG 2 20 Jan 07:30:34 07:35:20 72° 102° (ESE) 07:40:05 437.445
CUTE 1.7 + AOD 2 20 Jan 07:31:04 07:35:17 75° 287° (WNW) 07:39:29 437.475
FO-29 20 Jan 07:32:02 07:38:54 84° 255° (WSW) 07:44:58 435.910
TIGRISAT 20 Jan 07:32:19 07:34:21 13° 56° (NE) 07:36:24 435.000
UWE-3 20 Jan 07:38:30 07:43:06 51° 99° (E) 07:47:37 435.000/436.395/437.385
HO-68 20 Jan 07:45:05 07:52:17 86° 291° (WNW) 07:59:27 435.675
UNISAT 6 20 Jan 07:46:03 07:49:07 18° 60° (ENE) 07:52:13 437.425
RS-15 20 Jan 08:01:21 08:12:54 50° 112° (ESE) 08:24:18 29.354- 29.394
YUBILEINY 20 Jan 08:02:24 08:07:32 16° 50° (NE) 08:12:36 435.215
KAITUO 1B 20 Jan 08:04:06 08:05:55 13° 299° (WNW) 08:07:44 145.475/437.950
XW-2F 20 Jan 08:04:26 08:05:32 11° 301° (WNW) 08:06:37 145.980 - 146.000
ZACube-1 20 Jan 08:04:54 08:09:23 50° 99° (E) 08:13:46 437.345
STRAND 1 20 Jan 08:09:26 08:12:59 19° 270° (W) 08:16:32 437.568
CUTE-I 20 Jan 08:09:37 08:13:51 25° 300° (WNW) 08:18:04 437.470
AO-73 20 Jan 08:12:24 08:16:53 52° 99° (E) 08:21:16 145.935
NUDT-PHONESAT 20 Jan 08:18:20 08:18:56 10° 301° (WNW) 08:19:31 437.300
AAUSAT CUBESAT 2 20 Jan 08:41:37 08:45:36 49° 289° (WNW) 08:49:32 437.432
Oscar 11 20 Jan 08:46:59 08:51:20 74° 102° (ESE) 08:55:39 .
SO-50 20 Jan 08:52:23 08:54:54 14° 339° (NNW) 08:57:27 436.795
XW-2A 20 Jan 08:53:54 08:56:58 32° 290° (WNW) 09:00:00 145.665 - 145.685
SEEDS 20 Jan 08:57:29 09:00:18 18° 298° (WNW) 09:03:06 437.485
BEESAT 3 20 Jan 09:00:00 09:00:53 11° 109° (ESE) 09:01:46 437.485
TIGRISAT 20 Jan 09:05:52 09:10:18 88° 71° (ENE) 09:14:53 435.000
CUBEBUG 2 20 Jan 09:08:19 09:11:24 17° 300° (WNW) 09:14:29 437.445
EO-88 20 Jan 09:10:53 09:11:52 11° 88° (E) 09:12:50 145.990 - 145.960
UWE-3 20 Jan 09:15:35 09:19:13 23° 297° (WNW) 09:22:48 435.000/436.395/437.385
FO-29 20 Jan 09:20:48 09:24:40 16° 272° (W) 09:28:19 435.910
UNISAT 6 20 Jan 09:20:58 09:25:21 61° 259° (W) 09:29:53 437.425
PCSat 20 Jan 09:21:18 09:25:21 22° 108° (ESE) 09:29:25 145.827
AIST 2D 20 Jan 09:25:11 09:27:17 15° 64° (ENE) 09:29:24 435.315
DELFI C3 20 Jan 09:28:34 09:32:16 40° 98° (E) 09:35:58 145.870
HO-68 20 Jan 09:33:54 09:39:05 22° 310° (NW) 09:44:17 435.675
O/OREOS (USA 219) 20 Jan 09:35:24 09:39:32 35° 55° (NE) 09:43:40 437.305
ZACube-1 20 Jan 09:41:49 09:45:19 22° 297° (WNW) 09:48:47 437.345
AO-73 20 Jan 09:49:21 09:52:45 21° 298° (WNW) 09:56:06 145.935
PRISM 20 Jan 09:52:42 09:56:45 74° 74° (ENE) 10:00:49 437.425
YUBILEINY 20 Jan 09:57:47 10:06:29 63° 76° (ENE) 10:15:05 435.215
POLYITAN 1 20 Jan 09:58:03 10:00:33 15° 59° (ENE) 10:03:03 437.675
RS-15 20 Jan 10:12:54 10:25:11 66° 317° (NW) 10:37:11 29.354- 29.394
NANOSAT C BR1 20 Jan 10:14:05 10:17:05 19° 62° (ENE) 10:20:05 145.865
Max Valier Satellite 20 Jan 10:20:59 10:24:42 75° 285° (WNW) 10:28:23 145.860
Oscar 11 20 Jan 10:24:32 10:26:55 15° 301° (WNW) 10:29:18 .
QB50P2 20 Jan 10:26:11 10:29:52 30° 66° (ENE) 10:33:36 145.880/145.840
LO-87 20 Jan 10:32:42 10:34:34 13° 90° (E) 10:36:25 145.935 - 145.965
BEESAT 3 20 Jan 10:33:44 10:37:44 87° 127° (SE) 10:41:45 437.485
SO-50 20 Jan 10:36:34 10:37:22 10° 4° (N) 10:38:11 436.795
EO-88 20 Jan 10:42:17 10:45:54 63° 287° (WNW) 10:49:29 145.990 - 145.960
TIGRISAT 20 Jan 10:46:21 10:47:41 11° 274° (W) 10:49:02 435.000
ESTCUBE 1 20 Jan 10:51:58 10:55:19 20° 92° (E) 10:58:38 437.505/2401.250
AIST 2D 20 Jan 10:56:43 11:00:07 44° 261° (W) 11:03:31 435.315
EO-79 20 Jan 10:56:57 11:01:04 53° 72° (ENE) 11:05:14 145.935-145.965
DUCHIFAT 1 20 Jan 10:57:11 11:01:09 41° 69° (ENE) 11:05:09 145.980
PCSat 20 Jan 11:02:50 11:08:14 69° 307° (NW) 11:13:41 145.827
DELFI C3 20 Jan 11:03:51 11:06:46 20° 296° (WNW) 11:09:40 145.870
O/OREOS (USA 219) 20 Jan 11:14:58 11:18:51 29° 255° (WSW) 11:22:44 437.305
BEESAT 2 20 Jan 11:19:11 11:23:11 72° 125° (SE) 11:27:14 435.950
PRISM 20 Jan 11:31:08 11:32:32 11° 272° (W) 11:33:55 437.425
POLYITAN 1 20 Jan 11:31:35 11:35:48 68° 258° (WSW) 11:40:05 437.675
Gurwin Techsat 1B 20 Jan 11:43:24 11:47:22 22° 59° (ENE) 11:51:21 435.225
NANOSAT C BR1 20 Jan 11:48:19 11:52:25 51° 260° (W) 11:56:35 145.865
YUBILEINY 20 Jan 11:55:16 12:02:45 34° 278° (W) 12:10:12 435.215
AO-7 20 Jan 11:58:34 12:03:28 17° 37° (NE) 12:08:22 .
QB50P2 20 Jan 12:01:52 12:05:37 30° 265° (W) 12:09:24 145.880/145.840
BUGSAT 1 20 Jan 12:02:22 12:06:17 48° 71° (ENE) 12:10:18 437.445
Oscar 19 20 Jan 12:04:07 12:08:54 38° 65° (ENE) 12:13:42 437.125/150
LO-87 20 Jan 12:04:43 12:08:16 50° 287° (WNW) 12:11:47 145.935 - 145.965
BEESAT 3 20 Jan 12:12:59 12:15:47 18° 327° (NNW) 12:18:37 437.485
AO-85 20 Jan 12:14:52 12:18:35 39° 119° (ESE) 12:22:35 145.980
SO-50 20 Jan 12:16:15 12:19:39 20° 29° (NNE) 12:23:05 436.795
ESTCUBE 1 20 Jan 12:28:02 12:32:23 49° 290° (WNW) 12:36:41 437.505/2401.250
RS-15 20 Jan 12:29:19 12:40:25 37° 348° (NNW) 12:51:07 29.354- 29.394
VELOX 1 20 Jan 12:31:48 12:35:37 28° 95° (E) 12:39:24 145.980
DUCHIFAT 1 20 Jan 12:33:44 12:36:59 21° 267° (W) 12:40:16 145.980
EO-79 20 Jan 12:34:22 12:37:09 17° 269° (W) 12:39:57 145.935-145.965
SPROUT 20 Jan 12:35:48 12:40:02 55° 100° (E) 12:44:16 437.525
PCSat 20 Jan 12:48:48 12:52:39 19° 330° (NNW) 12:56:30 145.827
AO-91 20 Jan 12:52:02 12:55:24 80° 257° (WSW) 12:58:55 145.960
BEESAT 2 20 Jan 12:58:14 13:01:20 21° 325° (NW) 13:04:26 435.950
ITAMSAT 1 20 Jan 13:12:00 13:13:46 12° 51° (NE) 13:15:33 435.822/435.867
Gurwin Techsat 1B 20 Jan 13:21:34 13:26:51 66° 258° (WSW) 13:32:10 435.225
BUGSAT 1 20 Jan 13:39:07 13:41:55 18° 269° (W) 13:44:45 437.445
Oscar 19 20 Jan 13:43:34 13:48:15 33° 264° (W) 13:52:58 437.125/150
AO-7 20 Jan 13:46:25 13:54:28 54° 60° (ENE) 14:02:32 .
AO-85 20 Jan 13:55:22 13:59:04 31° 321° (NW) 14:03:03 145.980
SO-50 20 Jan 13:56:10 14:00:52 76° 49° (NE) 14:05:37 436.795
50 SAT 20 Jan 13:57:23 14:00:19 36° 99° (E) 14:03:13 437.505
VELOX 1 20 Jan 14:08:07 14:12:05 34° 293° (WNW) 14:16:02 145.980
SPROUT 20 Jan 14:12:34 14:15:33 18° 299° (WNW) 14:18:30 437.525
M-CUBED/EXP-1 PRIME 20 Jan 14:13:46 14:15:31 12° 53° (NE) 14:17:13 437.505
UKube-1 20 Jan 14:16:38 14:20:45 42° 99° (E) 14:24:49 .
MOZHAYETS 4 20 Jan 14:17:42 14:20:28 15° 89° (E) 14:23:13
DX 1 20 Jan 14:26:32 14:30:54 85° 105° (ESE) 14:35:15 434.975-435.025
PCSat 20 Jan 14:37:48 14:38:21 10° 356° (N) 14:38:55 145.827
RS-15 20 Jan 14:45:29 14:56:44 42° 22° (NNE) 15:07:26 29.354- 29.394
ITAMSAT 1 20 Jan 14:47:09 14:52:16 64° 70° (ENE) 14:57:23 435.822/435.867
DOVE 4 20 Jan 15:12:19 15:15:49 25° 66° (ENE) 15:19:15 437.250
ITUPSAT 1 20 Jan 15:15:08 15:19:24 30° 96° (E) 15:23:37 437.325
50 SAT 20 Jan 15:29:59 15:31:45 14° 296° (WNW) 15:33:29 437.505
SO-50 20 Jan 15:37:42 15:40:49 18° 248° (WSW) 15:43:57 436.795
AO-85 20 Jan 15:39:17 15:40:55 12° 345° (NNW) 15:42:36 145.980
AO-7 20 Jan 15:39:38 15:47:25 42° 261° (W) 15:55:18 .
M-CUBED/EXP-1 PRIME 20 Jan 15:45:02 15:49:23 87° 65° (ENE) 15:53:26 437.505
UKube-1 20 Jan 15:53:07 15:56:32 23° 297° (WNW) 15:59:57 .
MOZHAYETS 4 20 Jan 15:53:29 15:58:06 68° 287° (WNW) 16:02:41
CUBESAT XI-V 20 Jan 15:54:33 15:58:49 35° 96° (E) 16:03:02 437.345
BEESAT 20 Jan 15:55:03 15:59:52 71° 103° (ESE) 16:04:39 436.000
DX 1 20 Jan 16:04:23 16:06:27 13° 303° (WNW) 16:08:32 434.975-435.025
XW-2B 20 Jan 16:06:34 16:08:31 14° 61° (ENE) 16:10:28 145.730 - 145.750
CUTE-I 20 Jan 16:16:06 16:20:07 23° 59° (ENE) 16:24:10 437.470
PCSat 20 Jan 16:21:21 16:24:18 14° 23° (NNE) 16:27:15 145.827
ITAMSAT 1 20 Jan 16:28:28 16:32:10 20° 269° (W) 16:35:53 435.822/435.867
HO-68 20 Jan 16:31:28 16:37:04 26° 53° (NE) 16:42:39 435.675
LilacSat-2 20 Jan 16:32:07 16:35:23 26° 67° (ENE) 16:38:39 437.200
XW-2C 20 Jan 16:35:20 16:38:33 26° 67° (ENE) 16:41:47 145.795 - 145.815
NO-84 20 Jan 16:39:53 16:40:38 11° 131° (SE) 16:41:24 435.350 FM
DOVE 4 20 Jan 16:49:30 16:53:25 34° 263° (W) 16:57:14 437.250
ITUPSAT 1 20 Jan 16:52:50 16:57:16 37° 294° (WNW) 17:01:41 437.325
CUTE 1.7 + AOD 2 20 Jan 16:53:04 16:55:31 15° 60° (ENE) 16:57:59 437.475
CUBEBUG 2 20 Jan 16:58:19 17:00:15 13° 56° (NE) 17:02:13 437.445
BEESAT 3 20 Jan 17:09:58 17:13:17 25° 38° (NE) 17:16:34 437.485
KAITUO 1B 20 Jan 17:11:27 17:15:04 45° 72° (ENE) 17:18:40 145.475/437.950
XW-2F 20 Jan 17:11:46 17:15:31 60° 73° (ENE) 17:19:17 145.980 - 146.000
